Time,TemperatureF,DewpointF,PressureIn,WindDirection,WindDirectionDegrees,WindSpeedMPH,WindSpeedGustMPH,Humidity,HourlyPrecipIn,Conditions,Clouds,dailyrainin,SoftwareType,DateUTC
2013-02-15 00:00:00,32.9,26.2,30.01,West,276,3.0,7.0,76,0.00,,,0.00,Wunderground v.1.15,2013-02-15 05:00:00,
2013-02-15 00:01:00,32.9,26.2,30.01,WSW,256,3.0,7.0,76,0.00,,,0.00,Wunderground v.1.15,2013-02-15 05:01:00,
2013-02-15 00:03:00,32.9,26.2,30.01,West,263,3.0,7.0,76,0.00,,,0.00,Wunderground v.1.15,2013-02-15 05:03:00,
2013-02-15 00:09:00,32.6,25.6,30.01,WNW,302,3.0,7.0,75,0.00,,,0.00,Wunderground v.1.15,2013-02-15 05:09:00,
2013-02-15 00:11:00,32.5,25.8,30.01,WSW,253,3.0,4.0,76,0.00,,,0.00,Wunderground v.1.15,2013-02-15 05:11:00,
2013-02-15 00:17:00,32.5,25.5,30.00,WNW,285,2.0,4.0,75,0.00,,,0.00,Wunderground v.1.15,2013-02-15 05:17:00,
2013-02-15 00:23:00,32.4,25.4,30.00,West,270,2.0,4.0,75,0.00,,,0.00,Wunderground v.1.15,2013-02-15 05:23:00,
2013-02-15 00:29:00,32.0,25.0,30.00,WSW,245,2.0,4.0,75,0.00,,,0.00,Wunderground v.1.15,2013-02-15 05:29:00,
2013-02-15 00:34:00,31.8,25.1,30.00,WSW,238,3.0,10.0,76,0.00,,,0.00,Wunderground v.1.15,2013-02-15 05:34:00,
2013-02-15 00:39:00,31.8,25.1,30.00,SW,235,4.0,10.0,76,0.00,,,0.00,Wunderground v.1.15,2013-02-15 05:39:00,
2013-02-15 00:45:00,31.5,25.1,30.00,WSW,240,4.0,10.0,77,0.00,,,0.00,Wunderground v.1.15,2013-02-15 05:45:00,
2013-02-15 00:51:00,31.1,25.0,30.01,SW,233,4.0,10.0,78,0.00,,,0.00,Wunderground v.1.15,2013-02-15 05:51:00,
2013-02-15 00:57:00,30.9,25.2,30.01,SW,221,4.0,10.0,79,0.00,,,0.00,Wunderground v.1.15,2013-02-15 05:57:00,
2013-02-15 01:03:00,30.8,25.4,30.01,WSW,243,4.0,5.0,80,0.00,,,0.00,Wunderground v.1.15,2013-02-15 06:03:00,
2013-02-15 01:09:00,30.8,26.0,30.01,SW,225,5.0,7.0,82,0.00,,,0.00,Wunderground v.1.15,2013-02-15 06:09:00,
2013-02-15 01:15:00,30.8,26.2,30.01,SW,225,5.0,7.0,83,0.00,,,0.00,Wunderground v.1.15,2013-02-15 06:15:00,
2013-02-15 01:21:00,30.7,26.1,30.01,SSW,208,5.0,6.0,83,0.00,,,0.00,Wunderground v.1.15,2013-02-15 06:21:00,
2013-02-15 01:27:00,30.5,26.0,30.01,SW,231,5.0,6.0,83,0.00,,,0.00,Wunderground v.1.15,2013-02-15 06:27:00,
2013-02-15 01:32:00,30.5,25.7,30.01,West,279,4.0,6.0,82,0.00,,,0.00,Wunderground v.1.15,2013-02-15 06:32:00,
2013-02-15 01:38:00,30.3,25.5,30.01,SW,229,4.0,6.0,82,0.00,,,0.00,Wunderground v.1.15,2013-02-15 06:38:00,
2013-02-15 01:44:00,30.2,25.1,30.01,SW,217,3.0,6.0,81,0.00,,,0.00,Wunderground v.1.15,2013-02-15 06:44:00,
2013-02-15 01:50:00,30.2,25.1,30.01,SW,235,4.0,4.0,81,0.00,,,0.00,Wunderground v.1.15,2013-02-15 06:50:00,
2013-02-15 01:56:00,30.2,25.4,30.02,WSW,238,4.0,7.0,82,0.00,,,0.00,Wunderground v.1.15,2013-02-15 06:56:00,
2013-02-15 02:02:00,30.2,25.7,30.02,WSW,248,5.0,5.0,83,0.00,,,0.00,Wunderground v.1.15,2013-02-15 07:02:00,
2013-02-15 02:08:00,30.0,25.5,30.02,SW,215,5.0,7.0,83,0.00,,,0.00,Wunderground v.1.15,2013-02-15 07:08:00,
2013-02-15 02:13:00,30.0,25.5,30.02,SW,225,4.0,8.0,83,0.00,,,0.00,Wunderground v.1.15,2013-02-15 07:13:00,
2013-02-15 02:19:00,30.2,25.7,30.02,SW,235,5.0,8.0,83,0.00,,,0.00,Wunderground v.1.15,2013-02-15 07:19:00,
2013-02-15 02:25:00,30.1,25.6,30.02,West,264,5.0,5.0,83,0.00,,,0.00,Wunderground v.1.15,2013-02-15 07:25:00,
2013-02-15 02:31:00,30.0,25.5,30.02,SSW,205,4.0,8.0,83,0.00,,,0.00,Wunderground v.1.15,2013-02-15 07:31:00,
2013-02-15 02:37:00,29.7,25.5,30.02,South,170,3.0,8.0,84,0.00,,,0.00,Wunderground v.1.15,2013-02-15 07:37:00,
2013-02-15 02:43:00,29.7,25.5,30.02,WSW,242,3.0,8.0,84,0.00,,,0.00,Wunderground v.1.15,2013-02-15 07:43:00,
2013-02-15 02:49:00,29.8,25.6,30.02,WSW,256,4.0,8.0,84,0.00,,,0.00,Wunderground v.1.15,2013-02-15 07:49:00,
2013-02-15 02:54:00,29.6,25.6,30.02,WSW,248,4.0,8.0,85,0.00,,,0.00,Wunderground v.1.15,2013-02-15 07:54:00,
2013-02-15 03:00:00,29.5,25.5,30.02,WSW,258,4.0,4.0,85,0.00,,,0.00,Wunderground v.1.15,2013-02-15 08:00:00,
2013-02-15 03:06:00,29.4,25.4,30.02,WSW,238,3.0,4.0,85,0.00,,,0.00,Wunderground v.1.15,2013-02-15 08:06:00,
2013-02-15 03:12:00,29.3,25.4,30.02,SW,231,3.0,5.0,85,0.00,,,0.00,Wunderground v.1.15,2013-02-15 08:12:00,
2013-02-15 03:18:00,29.2,25.3,30.02,SW,229,3.0,5.0,85,0.00,,,0.00,Wunderground v.1.15,2013-02-15 08:18:00,
2013-02-15 03:24:00,29.2,25.3,30.02,SW,229,3.0,4.0,85,0.00,,,0.00,Wunderground v.1.15,2013-02-15 08:24:00,
2013-02-15 03:30:00,29.4,25.7,30.02,SW,218,3.0,3.0,86,0.00,,,0.00,Wunderground v.1.15,2013-02-15 08:30:00,
2013-02-15 03:35:00,29.3,25.6,30.02,WSW,245,3.0,8.0,86,0.00,,,0.00,Wunderground v.1.15,2013-02-15 08:35:00,
2013-02-15 03:41:00,29.2,25.5,30.02,SW,236,2.0,8.0,86,0.00,,,0.00,Wunderground v.1.15,2013-02-15 08:41:00,
2013-02-15 03:47:00,29.3,25.6,30.02,WNW,288,2.0,8.0,86,0.00,,,0.00,Wunderground v.1.15,2013-02-15 08:47:00,
2013-02-15 03:53:00,29.4,25.7,30.02,West,266,2.0,8.0,86,0.00,,,0.00,Wunderground v.1.15,2013-02-15 08:53:00,
2013-02-15 03:59:00,29.6,25.6,30.02,ESE,112,2.0,8.0,85,0.00,,,0.00,Wunderground v.1.15,2013-02-15 08:59:00,
2013-02-15 04:05:00,29.6,25.6,30.02,SSW,212,2.0,4.0,85,0.00,,,0.00,Wunderground v.1.15,2013-02-15 09:05:00,
2013-02-15 04:10:00,29.7,25.7,30.02,SSW,198,2.0,3.0,85,0.00,,,0.00,Wunderground v.1.15,2013-02-15 09:10:00,
2013-02-15 04:16:00,29.9,25.7,30.02,SSW,210,2.0,3.0,84,0.00,,,0.00,Wunderground v.1.15,2013-02-15 09:16:00,
2013-02-15 04:22:00,29.9,25.7,30.02,West,274,1.0,2.0,84,0.00,,,0.00,Wunderground v.1.15,2013-02-15 09:22:00,
2013-02-15 04:28:00,29.9,25.7,30.02,WSW,238,1.0,2.0,84,0.00,,,0.00,Wunderground v.1.15,2013-02-15 09:28:00,
2013-02-15 04:34:00,29.8,25.6,30.03,West,263,2.0,6.0,84,0.00,,,0.00,Wunderground v.1.15,2013-02-15 09:34:00,
2013-02-15 04:40:00,29.6,25.4,30.03,West,259,2.0,6.0,84,0.00,,,0.00,Wunderground v.1.15,2013-02-15 09:40:00,
2013-02-15 04:45:00,29.5,25.3,30.03,WSW,245,2.0,6.0,84,0.00,,,0.00,Wunderground v.1.15,2013-02-15 09:45:00,
2013-02-15 04:51:00,29.4,25.4,30.03,WSW,238,2.0,6.0,85,0.00,,,0.00,Wunderground v.1.15,2013-02-15 09:51:00,
2013-02-15 04:57:00,29.3,25.4,30.03,SW,229,2.0,6.0,85,0.00,,,0.00,Wunderground v.1.15,2013-02-15 09:57:00,
2013-02-15 05:03:00,29.2,25.3,30.03,SW,233,2.0,3.0,85,0.00,,,0.00,Wunderground v.1.15,2013-02-15 10:03:00,
2013-02-15 05:09:00,29.1,25.2,30.03,WSW,240,2.0,3.0,85,0.00,,,0.00,Wunderground v.1.15,2013-02-15 10:09:00,
2013-02-15 05:15:00,29.0,25.1,30.03,SW,233,2.0,2.0,85,0.00,,,0.00,Wunderground v.1.15,2013-02-15 10:15:00,
2013-02-15 05:21:00,29.0,25.1,30.04,WSW,242,2.0,2.0,85,0.00,,,0.00,Wunderground v.1.15,2013-02-15 10:21:00,
2013-02-15 05:27:00,28.9,25.0,30.04,WSW,246,2.0,2.0,85,0.00,,,0.00,Wunderground v.1.15,2013-02-15 10:27:00,
2013-02-15 05:33:00,28.9,25.0,30.04,SW,226,1.0,6.0,85,0.00,,,0.00,Wunderground v.1.15,2013-02-15 10:33:00,
2013-02-15 05:38:00,29.0,25.3,30.04,SW,226,2.0,6.0,86,0.00,,,0.00,Wunderground v.1.15,2013-02-15 10:38:00,
2013-02-15 05:44:00,29.2,25.3,30.04,SSW,204,2.0,6.0,85,0.00,,,0.00,Wunderground v.1.15,2013-02-15 10:44:00,
2013-02-15 05:50:00,29.3,25.4,30.05,SW,218,2.0,2.0,85,0.00,,,0.00,Wunderground v.1.15,2013-02-15 10:50:00,
2013-02-15 05:56:00,29.2,25.5,30.05,SW,221,1.0,6.0,86,0.00,,,0.00,Wunderground v.1.15,2013-02-15 10:56:00,
2013-02-15 06:02:00,29.2,25.5,30.05,SW,223,1.0,2.0,86,0.00,,,0.00,Wunderground v.1.15,2013-02-15 11:02:00,
2013-02-15 06:08:00,29.2,25.5,30.05,SSW,203,1.0,2.0,86,0.00,,,0.00,Wunderground v.1.15,2013-02-15 11:08:00,
2013-02-15 06:14:00,29.1,25.4,30.05,SSW,210,1.0,2.0,86,0.00,,,0.00,Wunderground v.1.15,2013-02-15 11:14:00,
2013-02-15 06:19:00,29.0,25.3,30.05,SSW,213,2.0,2.0,86,0.00,,,0.00,Wunderground v.1.15,2013-02-15 11:19:00,
2013-02-15 06:25:00,29.1,25.4,30.05,SW,215,2.0,2.0,86,0.00,,,0.00,Wunderground v.1.15,2013-02-15 11:25:00,
2013-02-15 06:31:00,29.2,25.5,30.05,SW,235,2.0,3.0,86,0.00,,,0.00,Wunderground v.1.15,2013-02-15 11:31:00,
2013-02-15 06:37:00,29.2,25.8,30.06,SW,221,2.0,3.0,87,0.00,,,0.00,Wunderground v.1.15,2013-02-15 11:37:00,
2013-02-15 06:43:00,29.3,25.9,30.06,WSW,238,2.0,4.0,87,0.00,,,0.00,Wunderground v.1.15,2013-02-15 11:43:00,
2013-02-15 06:49:00,29.4,26.0,30.06,WSW,248,2.0,4.0,87,0.00,,,0.00,Wunderground v.1.15,2013-02-15 11:49:00,
2013-02-15 06:55:00,29.4,26.0,30.06,SW,235,2.0,3.0,87,0.00,,,0.00,Wunderground v.1.15,2013-02-15 11:55:00,
2013-02-15 07:00:00,29.5,26.1,30.06,SW,220,2.0,2.0,87,0.00,,,0.00,Wunderground v.1.15,2013-02-15 12:00:00,
2013-02-15 07:05:00,29.5,26.1,30.06,SW,236,2.0,2.0,87,0.00,,,0.00,Wunderground v.1.15,2013-02-15 12:05:00,
2013-02-15 07:11:00,29.6,26.2,30.07,WSW,252,2.0,2.0,87,0.00,,,0.00,Wunderground v.1.15,2013-02-15 12:11:00,
2013-02-15 07:17:00,29.7,26.3,30.07,SSW,205,2.0,3.0,87,0.00,,,0.00,Wunderground v.1.15,2013-02-15 12:17:00,
2013-02-15 07:23:00,29.7,26.3,30.07,West,260,2.0,2.0,87,0.00,,,0.00,Wunderground v.1.15,2013-02-15 12:23:00,
2013-02-15 07:29:00,29.7,26.3,30.07,South,179,1.0,2.0,87,0.00,,,0.00,Wunderground v.1.15,2013-02-15 12:29:00,
2013-02-15 07:35:00,29.7,26.3,30.08,WSW,241,1.0,3.0,87,0.00,,,0.00,Wunderground v.1.15,2013-02-15 12:35:00,
2013-02-15 07:41:00,29.8,26.4,30.08,SW,226,2.0,3.0,87,0.00,,,0.00,Wunderground v.1.15,2013-02-15 12:41:00,
2013-02-15 07:46:00,29.8,26.1,30.08,SSW,203,2.0,3.0,86,0.00,,,0.00,Wunderground v.1.15,2013-02-15 12:46:00,
2013-02-15 07:52:00,30.0,26.0,30.08,West,281,1.0,4.0,85,0.00,,,0.00,Wunderground v.1.15,2013-02-15 12:52:00,
2013-02-15 07:58:00,30.1,26.1,30.08,SW,229,2.0,5.0,85,0.00,,,0.00,Wunderground v.1.15,2013-02-15 12:58:00,
2013-02-15 08:04:00,30.2,25.9,30.08,WSW,253,2.0,2.0,84,0.00,,,0.00,Wunderground v.1.15,2013-02-15 13:04:00,
2013-02-15 08:10:00,30.2,25.9,30.08,West,273,2.0,2.0,84,0.00,,,0.00,Wunderground v.1.15,2013-02-15 13:10:00,
2013-02-15 08:16:00,30.3,26.0,30.09,West,259,2.0,3.0,84,0.00,,,0.00,Wunderground v.1.15,2013-02-15 13:16:00,
2013-02-15 08:22:00,30.3,26.0,30.09,SSW,207,1.0,2.0,84,0.00,,,0.00,Wunderground v.1.15,2013-02-15 13:22:00,
2013-02-15 08:28:00,30.4,26.1,30.09,WSW,257,2.0,3.0,84,0.00,,,0.00,Wunderground v.1.15,2013-02-15 13:28:00,
2013-02-15 08:33:00,30.4,26.1,30.09,South,170,2.0,4.0,84,0.00,,,0.00,Wunderground v.1.15,2013-02-15 13:33:00,
2013-02-15 08:39:00,30.4,26.1,30.09,WNW,296,2.0,4.0,84,0.00,,,0.00,Wunderground v.1.15,2013-02-15 13:39:00,
2013-02-15 08:45:00,30.4,26.1,30.10,NW,306,2.0,4.0,84,0.00,,,0.00,Wunderground v.1.15,2013-02-15 13:45:00,
2013-02-15 08:51:00,30.5,26.0,30.10,West,266,2.0,5.0,83,0.00,,,0.00,Wunderground v.1.15,2013-02-15 13:51:00,
2013-02-15 08:57:00,30.7,25.9,30.10,NW,308,3.0,6.0,82,0.00,,,0.00,Wunderground v.1.15,2013-02-15 13:57:00,
2013-02-15 09:03:00,30.8,26.0,30.11,WNW,288,3.0,7.0,82,0.00,,,0.00,Wunderground v.1.15,2013-02-15 14:03:00,
2013-02-15 09:09:00,30.8,26.0,30.11,NW,320,4.0,7.0,82,0.00,,,0.00,Wunderground v.1.15,2013-02-15 14:09:00,
2013-02-15 09:15:00,30.8,26.2,30.11,NW,308,4.0,5.0,83,0.00,,,0.00,Wunderground v.1.15,2013-02-15 14:15:00,
2013-02-15 09:21:00,30.8,26.2,30.11,NW,314,3.0,4.0,83,0.00,,,0.00,Wunderground v.1.15,2013-02-15 14:21:00,
2013-02-15 09:26:00,30.8,26.0,30.11,NW,304,4.0,7.0,82,0.00,,,0.00,Wunderground v.1.15,2013-02-15 14:26:00,
2013-02-15 09:32:00,30.6,26.1,30.11,NW,316,5.0,6.0,83,0.00,,,0.00,Wunderground v.1.15,2013-02-15 14:32:00,
2013-02-15 09:38:00,30.5,26.0,30.12,NW,307,5.0,9.0,83,0.00,,,0.00,Wunderground v.1.15,2013-02-15 14:38:00,
2013-02-15 09:44:00,30.5,26.0,30.12,NW,309,4.0,7.0,83,0.00,,,0.00,Wunderground v.1.15,2013-02-15 14:44:00,
2013-02-15 09:50:00,30.5,26.0,30.12,NW,316,4.0,4.0,83,0.00,,,0.00,Wunderground v.1.15,2013-02-15 14:50:00,
2013-02-15 09:56:00,30.6,25.8,30.12,NW,307,4.0,6.0,82,0.00,,,0.00,Wunderground v.1.15,2013-02-15 14:56:00,
2013-02-15 10:02:00,30.8,26.0,30.12,WNW,289,5.0,5.0,82,0.00,,,0.00,Wunderground v.1.15,2013-02-15 15:02:00,
2013-02-15 10:07:00,30.9,25.5,30.12,NW,318,6.0,10.0,80,0.00,,,0.00,Wunderground v.1.15,2013-02-15 15:07:00,
2013-02-15 10:13:00,30.9,24.5,30.12,NNW,333,8.0,12.0,77,0.00,,,0.00,Wunderground v.1.15,2013-02-15 15:13:00,
2013-02-15 10:19:00,31.0,25.2,30.12,NNW,334,7.0,12.0,79,0.00,,,0.00,Wunderground v.1.15,2013-02-15 15:19:00,
2013-02-15 10:25:00,31.0,24.6,30.12,NNW,342,6.0,10.0,77,0.00,,,0.00,Wunderground v.1.15,2013-02-15 15:25:00,
2013-02-15 10:31:00,31.1,25.0,30.12,WNW,293,7.0,10.0,78,0.00,,,0.00,Wunderground v.1.15,2013-02-15 15:31:00,
2013-02-15 10:37:00,31.2,24.8,30.12,West,276,6.0,10.0,77,0.00,,,0.00,Wunderground v.1.15,2013-02-15 15:37:00,
2013-02-15 10:44:00,31.0,24.6,30.12,NNW,334,7.0,10.0,77,0.00,,,0.00,Wunderground v.1.15,2013-02-15 15:44:00,
2013-02-15 10:50:00,31.0,24.9,30.12,SW,219,7.0,7.0,78,0.00,,,0.00,Wunderground v.1.15,2013-02-15 15:50:00,
2013-02-15 10:56:00,30.9,25.2,30.12,WNW,298,7.0,10.0,79,0.00,,,0.00,Wunderground v.1.15,2013-02-15 15:56:00,
2013-02-15 11:02:00,30.9,25.5,30.13,WNW,285,6.0,6.0,80,0.00,,,0.00,Wunderground v.1.15,2013-02-15 16:02:00,
2013-02-15 11:07:00,31.0,25.6,30.13,NW,322,5.0,9.0,80,0.00,,,0.00,Wunderground v.1.15,2013-02-15 16:07:00,
2013-02-15 11:13:00,31.0,25.6,30.13,NNW,333,6.0,7.0,80,0.00,,,0.00,Wunderground v.1.15,2013-02-15 16:13:00,
2013-02-15 11:19:00,31.1,25.7,30.13,WNW,302,5.0,7.0,80,0.00,,,0.00,Wunderground v.1.15,2013-02-15 16:19:00,
2013-02-15 11:25:00,31.2,26.0,30.13,NW,309,4.0,7.0,81,0.00,,,0.00,Wunderground v.1.15,2013-02-15 16:25:00,
2013-02-15 11:31:00,30.7,26.4,30.13,NW,311,7.0,13.0,84,0.00,,,0.00,Wunderground v.1.15,2013-02-15 16:31:00,
2013-02-15 11:37:00,29.9,26.5,30.13,North,352,10.0,16.0,87,0.00,,,0.00,Wunderground v.1.15,2013-02-15 16:37:00,
2013-02-15 11:43:00,29.6,26.8,30.14,NNW,332,11.0,13.0,89,0.00,,,0.00,Wunderground v.1.15,2013-02-15 16:43:00,
2013-02-15 11:49:00,28.9,24.7,30.14,NNW,329,13.0,19.0,84,0.00,,,0.00,Wunderground v.1.15,2013-02-15 16:49:00,
2013-02-15 11:54:00,28.9,24.7,30.14,NNW,329,16.0,18.0,84,0.00,,,0.00,Wunderground v.1.15,2013-02-15 16:54:00,
2013-02-15 12:00:00,29.1,25.7,30.14,North,1,15.0,15.0,87,0.00,,,0.00,Wunderground v.1.15,2013-02-15 17:00:00,
2013-02-15 12:06:00,29.1,25.2,30.14,NNW,332,14.0,16.0,85,0.00,,,0.00,Wunderground v.1.15,2013-02-15 17:06:00,
2013-02-15 12:12:00,29.0,25.6,30.14,NNW,343,13.0,13.0,87,0.00,,,0.00,Wunderground v.1.15,2013-02-15 17:12:00,
2013-02-15 12:18:00,28.7,25.6,30.14,NNW,347,11.0,13.0,88,0.00,,,0.00,Wunderground v.1.15,2013-02-15 17:18:00,
2013-02-15 12:24:00,28.3,25.7,30.14,NNW,338,10.0,11.0,90,0.00,,,0.00,Wunderground v.1.15,2013-02-15 17:24:00,
2013-02-15 12:30:00,28.1,25.8,30.14,NNW,335,11.0,11.0,91,0.00,,,0.00,Wunderground v.1.15,2013-02-15 17:30:00,
2013-02-15 12:36:00,28.1,25.8,30.14,North,8,12.0,15.0,91,0.00,,,0.00,Wunderground v.1.15,2013-02-15 17:36:00,
2013-02-15 12:42:00,27.9,25.6,30.15,NNW,330,13.0,15.0,91,0.00,,,0.00,Wunderground v.1.15,2013-02-15 17:42:00,
2013-02-15 12:47:00,28.0,26.0,30.15,NW,316,12.0,15.0,92,0.00,,,0.00,Wunderground v.1.15,2013-02-15 17:47:00,
2013-02-15 12:53:00,27.8,25.2,30.15,North,352,13.0,18.0,90,0.00,,,0.00,Wunderground v.1.15,2013-02-15 17:53:00,
2013-02-15 12:59:00,28.0,25.4,30.15,NNW,330,13.0,18.0,90,0.00,,,0.00,Wunderground v.1.15,2013-02-15 17:59:00,
2013-02-15 13:05:00,28.4,25.6,30.14,NNW,330,12.0,14.0,89,0.00,,,0.00,Wunderground v.1.15,2013-02-15 18:05:00,
2013-02-15 13:11:00,28.9,25.5,30.15,NW,324,12.0,14.0,87,0.00,,,0.00,Wunderground v.1.15,2013-02-15 18:11:00,
2013-02-15 13:17:00,29.5,25.8,30.14,NW,326,10.0,16.0,86,0.00,,,0.00,Wunderground v.1.15,2013-02-15 18:17:00,
2013-02-15 13:23:00,29.8,25.6,30.14,NNW,339,11.0,14.0,84,0.00,,,0.00,Wunderground v.1.15,2013-02-15 18:23:00,
2013-02-15 13:29:00,30.0,25.5,30.14,NW,323,12.0,16.0,83,0.00,,,0.00,Wunderground v.1.15,2013-02-15 18:29:00,
2013-02-15 13:34:00,30.1,25.0,30.14,NNW,335,11.0,22.0,81,0.00,,,0.00,Wunderground v.1.15,2013-02-15 18:34:00,
2013-02-15 13:40:00,30.3,24.9,30.14,NW,323,10.0,10.0,80,0.00,,,0.00,Wunderground v.1.15,2013-02-15 18:40:00,
2013-02-15 13:46:00,30.4,25.0,30.14,NNW,332,10.0,22.0,80,0.00,,,0.00,Wunderground v.1.15,2013-02-15 18:46:00,
2013-02-15 13:52:00,30.1,24.4,30.14,WNW,301,10.0,22.0,79,0.00,,,0.00,Wunderground v.1.15,2013-02-15 18:52:00,
2013-02-15 13:58:00,29.8,24.4,30.15,NNW,328,10.0,22.0,80,0.00,,,0.00,Wunderground v.1.15,2013-02-15 18:58:00,
2013-02-15 14:04:00,28.9,24.7,30.15,NW,323,11.0,15.0,84,0.00,,,0.00,Wunderground v.1.15,2013-02-15 19:04:00,
2013-02-15 14:10:00,28.7,24.8,30.15,North,352,11.0,14.0,85,0.00,,,0.00,Wunderground v.1.15,2013-02-15 19:10:00,
2013-02-15 14:16:00,28.8,25.1,30.15,WNW,302,10.0,14.0,86,0.00,,,0.00,Wunderground v.1.15,2013-02-15 19:16:00,
2013-02-15 14:21:00,28.5,24.8,30.15,NNW,334,11.0,16.0,86,0.00,,,0.00,Wunderground v.1.15,2013-02-15 19:21:00,
2013-02-15 14:27:00,27.8,25.0,30.15,NW,319,12.0,16.0,89,0.00,,,0.00,Wunderground v.1.15,2013-02-15 19:27:00,
2013-02-15 14:33:00,27.9,24.5,30.15,NNW,338,11.0,17.0,87,0.00,,,0.00,Wunderground v.1.15,2013-02-15 19:33:00,
2013-02-15 14:39:00,28.3,24.4,30.15,NNW,327,11.0,17.0,85,0.00,,,0.00,Wunderground v.1.15,2013-02-15 19:39:00,
2013-02-15 14:45:00,28.5,24.8,30.15,NW,319,12.0,17.0,86,0.00,,,0.00,Wunderground v.1.15,2013-02-15 19:45:00,
2013-02-15 14:51:00,28.6,24.9,30.15,North,352,11.0,17.0,86,0.00,,,0.00,Wunderground v.1.15,2013-02-15 19:51:00,
2013-02-15 14:57:00,28.7,24.5,30.15,NW,323,12.0,17.0,84,0.00,,,0.00,Wunderground v.1.15,2013-02-15 19:57:00,
2013-02-15 15:03:00,29.0,25.1,30.15,NNW,339,9.0,11.0,85,0.00,,,0.00,Wunderground v.1.15,2013-02-15 20:03:00,
2013-02-15 15:08:00,29.2,24.4,30.15,NNW,334,9.0,13.0,82,0.00,,,0.00,Wunderground v.1.15,2013-02-15 20:08:00,
2013-02-15 15:14:00,29.2,23.2,30.16,NNW,328,11.0,15.0,78,0.00,,,0.00,Wunderground v.1.15,2013-02-15 20:14:00,
2013-02-15 15:20:00,29.3,22.7,30.16,NW,308,13.0,13.0,76,0.00,,,0.00,Wunderground v.1.15,2013-02-15 20:20:00,
2013-02-15 15:26:00,29.3,21.7,30.16,NW,315,13.0,14.0,73,0.00,,,0.00,Wunderground v.1.15,2013-02-15 20:26:00,
2013-02-15 15:32:00,29.0,21.4,30.16,NW,322,12.0,19.0,73,0.00,,,0.00,Wunderground v.1.15,2013-02-15 20:32:00,
2013-02-15 15:38:00,29.3,21.1,30.17,NW,307,10.0,19.0,71,0.00,,,0.00,Wunderground v.1.15,2013-02-15 20:38:00,
2013-02-15 15:43:00,29.4,20.8,30.16,WNW,301,9.0,19.0,70,0.00,,,0.00,Wunderground v.1.15,2013-02-15 20:43:00,
2013-02-15 15:49:00,29.4,20.5,30.17,NW,304,8.0,19.0,69,0.00,,,0.00,Wunderground v.1.15,2013-02-15 20:49:00,
2013-02-15 15:55:00,29.2,19.9,30.17,WSW,256,8.0,19.0,68,0.00,,,0.00,Wunderground v.1.15,2013-02-15 20:55:00,
2013-02-15 16:00:00,29.2,19.9,30.17,NW,308,10.0,10.0,68,0.00,,,0.00,Wunderground v.1.15,2013-02-15 21:00:00,
2013-02-15 16:06:00,29.3,20.0,30.17,North,350,11.0,17.0,68,0.00,,,0.00,Wunderground v.1.15,2013-02-15 21:06:00,
2013-02-15 16:11:00,29.0,19.1,30.17,WNW,300,11.0,14.0,66,0.00,,,0.00,Wunderground v.1.15,2013-02-15 21:11:00,
2013-02-15 16:17:00,29.0,19.1,30.17,WNW,300,9.0,15.0,66,0.00,,,0.00,Wunderground v.1.15,2013-02-15 21:17:00,
2013-02-15 16:23:00,29.2,19.2,30.17,WSW,250,7.0,8.0,66,0.00,,,0.00,Wunderground v.1.15,2013-02-15 21:23:00,
2013-02-15 16:29:00,29.7,18.6,30.18,NW,325,6.0,9.0,63,0.00,,,0.00,Wunderground v.1.15,2013-02-15 21:29:00,
2013-02-15 16:35:00,29.1,19.2,30.18,NW,309,9.0,21.0,66,0.00,,,0.00,Wunderground v.1.15,2013-02-15 21:35:00,
2013-02-15 16:40:00,28.6,18.7,30.18,NW,311,10.0,10.0,66,0.00,,,0.00,Wunderground v.1.15,2013-02-15 21:40:00,
2013-02-15 16:46:00,28.9,17.9,30.18,WNW,295,7.0,21.0,63,0.00,,,0.00,Wunderground v.1.15,2013-02-15 21:46:00,
2013-02-15 16:52:00,29.3,17.5,30.18,WNW,301,8.0,21.0,61,0.00,,,0.00,Wunderground v.1.15,2013-02-15 21:52:00,
2013-02-15 16:58:00,29.8,18.0,30.18,East,80,8.0,21.0,61,0.00,,,0.00,Wunderground v.1.15,2013-02-15 21:58:00,
2013-02-15 17:04:00,29.7,17.5,30.18,WSW,245,8.0,14.0,60,0.00,,,0.00,Wunderground v.1.15,2013-02-15 22:04:00,
2013-02-15 17:10:00,29.9,17.7,30.18,NW,314,9.0,13.0,60,0.00,,,0.00,Wunderground v.1.15,2013-02-15 22:10:00,
2013-02-15 17:16:00,29.9,16.9,30.18,NW,307,9.0,14.0,58,0.00,,,0.00,Wunderground v.1.15,2013-02-15 22:16:00,
2013-02-15 17:22:00,29.7,16.7,30.18,NW,324,9.0,12.0,58,0.00,,,0.00,Wunderground v.1.15,2013-02-15 22:22:00,
2013-02-15 17:28:00,29.7,16.7,30.18,West,269,9.0,12.0,58,0.00,,,0.00,Wunderground v.1.15,2013-02-15 22:28:00,
2013-02-15 17:34:00,29.7,17.5,30.18,NW,317,7.0,20.0,60,0.00,,,0.00,Wunderground v.1.15,2013-02-15 22:34:00,
2013-02-15 17:39:00,29.7,17.5,30.19,NW,316,6.0,20.0,60,0.00,,,0.00,Wunderground v.1.15,2013-02-15 22:39:00,
2013-02-15 17:45:00,29.4,18.3,30.19,NW,319,8.0,20.0,63,0.00,,,0.00,Wunderground v.1.15,2013-02-15 22:45:00,
2013-02-15 17:51:00,28.7,18.8,30.19,NW,324,10.0,20.0,66,0.00,,,0.00,Wunderground v.1.15,2013-02-15 22:51:00,
2013-02-15 17:57:00,28.1,18.5,30.19,NW,321,10.0,20.0,67,0.00,,,0.00,Wunderground v.1.15,2013-02-15 22:57:00,
2013-02-15 18:03:00,28.1,18.2,30.19,NW,323,11.0,11.0,66,0.00,,,0.00,Wunderground v.1.15,2013-02-15 23:03:00,
2013-02-15 18:09:00,28.0,17.7,30.19,NW,317,11.0,19.0,65,0.00,,,0.00,Wunderground v.1.15,2013-02-15 23:09:00,
2013-02-15 18:15:00,27.7,17.5,30.19,WNW,302,10.0,13.0,65,0.00,,,0.00,Wunderground v.1.15,2013-02-15 23:15:00,
2013-02-15 18:20:00,27.5,17.6,30.20,NNW,339,8.0,8.0,66,0.00,,,0.00,Wunderground v.1.15,2013-02-15 23:20:00,
2013-02-15 18:26:00,27.2,17.7,30.20,NW,318,7.0,11.0,67,0.00,,,0.00,Wunderground v.1.15,2013-02-15 23:26:00,
2013-02-15 18:32:00,27.0,17.8,30.20,NNW,328,8.0,18.0,68,0.00,,,0.00,Wunderground v.1.15,2013-02-15 23:32:00,
2013-02-15 18:38:00,26.7,18.2,30.20,NW,314,7.0,18.0,70,0.00,,,0.00,Wunderground v.1.15,2013-02-15 23:38:00,
2013-02-15 18:44:00,26.5,18.4,30.20,NW,322,5.0,18.0,71,0.00,,,0.00,Wunderground v.1.15,2013-02-15 23:44:00,
2013-02-15 18:50:00,26.4,17.9,30.21,NW,319,6.0,6.0,70,0.00,,,0.00,Wunderground v.1.15,2013-02-15 23:50:00,
2013-02-15 18:56:00,26.1,18.3,30.21,NW,318,5.0,18.0,72,0.00,,,0.00,Wunderground v.1.15,2013-02-15 23:56:00,
2013-02-15 19:02:00,26.2,18.1,30.21,WNW,302,5.0,6.0,71,0.00,,,0.00,Wunderground v.1.15,2013-02-16 00:02:00,
2013-02-15 19:08:00,26.1,18.0,30.21,NW,321,4.0,6.0,71,0.00,,,0.00,Wunderground v.1.15,2013-02-16 00:08:00,
2013-02-15 19:13:00,26.1,17.6,30.21,NW,323,4.0,5.0,70,0.00,,,0.00,Wunderground v.1.15,2013-02-16 00:13:00,
2013-02-15 19:19:00,26.1,17.3,30.21,NW,318,5.0,7.0,69,0.00,,,0.00,Wunderground v.1.15,2013-02-16 00:19:00,
2013-02-15 19:25:00,26.0,17.6,30.22,NW,311,5.0,5.0,70,0.00,,,0.00,Wunderground v.1.15,2013-02-16 00:25:00,
2013-02-15 19:31:00,25.9,17.5,30.22,NW,325,5.0,20.0,70,0.00,,,0.00,Wunderground v.1.15,2013-02-16 00:31:00,
2013-02-15 19:37:00,25.8,17.7,30.21,NW,321,4.0,20.0,71,0.00,,,0.00,Wunderground v.1.15,2013-02-16 00:37:00,
2013-02-15 19:43:00,25.7,17.6,30.22,WNW,296,4.0,20.0,71,0.00,,,0.00,Wunderground v.1.15,2013-02-16 00:43:00,
2013-02-15 19:49:00,25.6,17.5,30.21,NW,319,3.0,20.0,71,0.00,,,0.00,Wunderground v.1.15,2013-02-16 00:49:00,
2013-02-15 19:55:00,25.4,17.3,30.21,NNW,338,3.0,20.0,71,0.00,,,0.00,Wunderground v.1.15,2013-02-16 00:55:00,
2013-02-15 20:00:00,25.3,17.2,30.21,NW,316,2.0,2.0,71,0.00,,,0.00,Wunderground v.1.15,2013-02-16 01:00:00,
2013-02-15 20:06:00,25.1,17.0,30.21,WNW,299,2.0,4.0,71,0.00,,,0.00,Wunderground v.1.15,2013-02-16 01:06:00,
2013-02-15 20:12:00,25.0,16.9,30.21,NW,308,2.0,4.0,71,0.00,,,0.00,Wunderground v.1.15,2013-02-16 01:12:00,
2013-02-15 20:18:00,24.9,16.8,30.21,WNW,293,2.0,4.0,71,0.00,,,0.00,Wunderground v.1.15,2013-02-16 01:18:00,
2013-02-15 20:24:00,24.7,17.0,30.21,WNW,290,1.0,2.0,72,0.00,,,0.00,Wunderground v.1.15,2013-02-16 01:24:00,
2013-02-15 20:30:00,24.6,17.2,30.21,WNW,300,1.0,2.0,73,0.00,,,0.00,Wunderground v.1.15,2013-02-16 01:30:00,
2013-02-15 20:35:00,24.5,17.1,30.21,WNW,297,1.0,10.0,73,0.00,,,0.00,Wunderground v.1.15,2013-02-16 01:35:00,
2013-02-15 20:41:00,24.2,17.1,30.21,WNW,297,0.0,10.0,74,0.00,,,0.00,Wunderground v.1.15,2013-02-16 01:41:00,
2013-02-15 20:47:00,23.9,16.8,30.21,WSW,246,0.0,10.0,74,0.00,,,0.00,Wunderground v.1.15,2013-02-16 01:47:00,
2013-02-15 20:53:00,23.5,17.0,30.21,WSW,246,0.0,10.0,76,0.00,,,0.00,Wunderground v.1.15,2013-02-16 01:53:00,
2013-02-15 20:58:00,23.4,16.9,30.21,WSW,238,0.0,10.0,76,0.00,,,0.00,Wunderground v.1.15,2013-02-16 01:58:00,
2013-02-15 21:04:00,23.1,17.0,30.21,WSW,240,0.0,0.0,77,0.00,,,0.00,Wunderground v.1.15,2013-02-16 02:04:00,
2013-02-15 21:09:00,22.8,17.0,30.21,WSW,238,0.0,0.0,78,0.00,,,0.00,Wunderground v.1.15,2013-02-16 02:09:00,
2013-02-15 21:15:00,22.4,16.9,30.21,SW,235,0.0,1.0,79,0.00,,,0.00,Wunderground v.1.15,2013-02-16 02:15:00,
2013-02-15 21:21:00,22.4,17.2,30.21,SW,235,1.0,1.0,80,0.00,,,0.00,Wunderground v.1.15,2013-02-16 02:21:00,
2013-02-15 21:27:00,22.3,16.8,30.21,SW,235,0.0,1.0,79,0.00,,,0.00,Wunderground v.1.15,2013-02-16 02:27:00,
2013-02-15 21:33:00,22.5,16.7,30.21,West,277,1.0,6.0,78,0.00,,,0.00,Wunderground v.1.15,2013-02-16 02:33:00,
2013-02-15 21:39:00,22.9,16.8,30.22,WNW,283,1.0,6.0,77,0.00,,,0.00,Wunderground v.1.15,2013-02-16 02:39:00,
2013-02-15 21:44:00,23.0,16.6,30.22,West,271,1.0,6.0,76,0.00,,,0.00,Wunderground v.1.15,2013-02-16 02:44:00,
2013-02-15 21:50:00,23.0,16.6,30.22,WSW,257,1.0,1.0,76,0.00,,,0.00,Wunderground v.1.15,2013-02-16 02:50:00,
2013-02-15 21:56:00,22.8,16.4,30.22,WSW,255,0.0,6.0,76,0.00,,,0.00,Wunderground v.1.15,2013-02-16 02:56:00,
2013-02-15 22:02:00,22.4,16.0,30.22,WSW,255,0.0,0.0,76,0.00,,,0.00,Wunderground v.1.15,2013-02-16 03:02:00,
2013-02-15 22:08:00,21.9,16.4,30.22,WSW,252,0.0,1.0,79,0.00,,,0.00,Wunderground v.1.15,2013-02-16 03:08:00,
2013-02-15 22:14:00,21.7,16.8,30.21,WSW,252,0.0,0.0,81,0.00,,,0.00,Wunderground v.1.15,2013-02-16 03:14:00,
2013-02-15 22:20:00,21.5,16.0,30.21,WSW,252,0.0,0.0,79,0.00,,,0.00,Wunderground v.1.15,2013-02-16 03:20:00,
2013-02-15 22:26:00,21.0,15.5,30.21,WSW,252,0.0,0.0,79,0.00,,,0.00,Wunderground v.1.15,2013-02-16 03:26:00,
2013-02-15 22:31:00,20.8,15.6,30.21,WSW,252,0.0,3.0,80,0.00,,,0.00,Wunderground v.1.15,2013-02-16 03:31:00,
2013-02-15 22:37:00,20.7,16.1,30.21,WSW,252,0.0,3.0,82,0.00,,,0.00,Wunderground v.1.15,2013-02-16 03:37:00,
2013-02-15 22:43:00,20.6,16.0,30.21,WSW,252,0.0,3.0,82,0.00,,,0.00,Wunderground v.1.15,2013-02-16 03:43:00,
2013-02-15 22:49:00,20.4,15.8,30.21,WSW,252,0.0,3.0,82,0.00,,,0.00,Wunderground v.1.15,2013-02-16 03:49:00,
2013-02-15 22:55:00,20.2,15.9,30.20,WSW,252,0.0,3.0,83,0.00,,,0.00,Wunderground v.1.15,2013-02-16 03:55:00,
2013-02-15 23:00:00,20.4,16.3,30.20,WSW,252,0.0,1.0,84,0.00,,,0.00,Wunderground v.1.15,2013-02-16 04:00:00,
2013-02-15 23:06:00,20.4,16.9,30.20,WSW,252,1.0,1.0,86,0.00,,,0.00,Wunderground v.1.15,2013-02-16 04:06:00,
2013-02-15 23:11:00,20.5,17.0,30.20,SSW,197,1.0,1.0,86,0.00,,,0.00,Wunderground v.1.15,2013-02-16 04:11:00,
2013-02-15 23:17:00,20.7,17.2,30.20,SE,143,1.0,1.0,86,0.00,,,0.00,Wunderground v.1.15,2013-02-16 04:17:00,
2013-02-15 23:23:00,21.0,17.2,30.20,SE,146,1.0,1.0,85,0.00,,,0.00,Wunderground v.1.15,2013-02-16 04:23:00,
2013-02-15 23:28:00,21.1,17.6,30.20,SE,146,1.0,1.0,86,0.00,,,0.00,Wunderground v.1.15,2013-02-16 04:28:00,
2013-02-15 23:34:00,20.9,17.4,30.19,SE,146,0.0,1.0,86,0.00,,,0.00,Wunderground v.1.15,2013-02-16 04:34:00,
2013-02-15 23:40:00,21.1,17.8,30.19,SE,145,0.0,1.0,87,0.00,,,0.00,Wunderground v.1.15,2013-02-16 04:40:00,
2013-02-15 23:46:00,21.1,17.8,30.19,SE,145,1.0,1.0,87,0.00,,,0.00,Wunderground v.1.15,2013-02-16 04:46:00,
2013-02-15 23:51:00,21.1,18.1,30.19,East,93,0.0,1.0,88,0.00,,,0.00,Wunderground v.1.15,2013-02-16 04:51:00,
2013-02-15 23:57:00,21.4,18.1,30.19,ESE,105,1.0,1.0,87,0.00,,,0.00,Wunderground v.1.15,2013-02-16 04:57:00,